EDT,Max TemperatureF,Mean TemperatureF,Min TemperatureF,Max Dew PointF,MeanDew PointF,Min DewpointF,Max Humidity, Mean Humidity, Min Humidity, Max Sea Level PressureIn, Mean Sea Level PressureIn, Min Sea Level PressureIn, Max VisibilityMiles, Mean VisibilityMiles, Min VisibilityMiles, Max Wind SpeedMPH, Mean Wind SpeedMPH, Max Gust SpeedMPH,PrecipitationIn, CloudCover, Events, WindDirDegrees
2013-4-1,29,23,17,19,15,8,74,60,46,30.11,29.91,29.75,10,6,1,25,13,32,0.01,6,Snow,306
2013-4-2,34,24,14,19,13,7,88,62,35,30.26,30.15,30.08,10,10,6,22,8,29,T,4,Snow,290
2013-4-3,39,28,16,18,13,10,88,62,35,30.44,30.35,30.26,10,10,2,18,6,24,T,2,Snow,283
2013-4-4,51,38,25,34,23,8,96,65,34,30.30,30.06,29.91,10,7,1,21,10,29,T,3,Rain,236
2013-4-5,41,33,25,30,17,10,89,60,30,30.25,30.16,30.01,10,10,10,15,7,21,0.00,0,,334
2013-4-6,46,35,24,27,21,15,81,65,48,30.24,30.06,29.66,10,9,1,20,10,28,0.01,7,Snow,135
2013-4-7,48,37,26,45,34,26,93,71,49,30.06,29.72,29.45,10,9,2,25,11,33,0.07,8,Rain,259
2013-4-8,40,33,25,37,33,23,100,85,70,30.06,29.88,29.73,10,6,2,18,7,25,0.59,6,Rain,70
2013-4-9,42,37,32,40,36,32,100,95,89,30.10,30.04,29.95,10,5,0,15,5,21,0.56,8,Fog-Rain,58
2013-4-10,40,37,33,35,32,29,100,88,75,30.12,30.06,29.99,10,8,2,18,10,23,0.78,8,Rain-Snow-Thunderstorm,48
2013-4-11,35,32,28,29,26,22,92,77,61,30.09,29.89,29.76,10,5,1,31,17,40,0.91,8,Rain-Snow,77
2013-4-12,36,33,30,34,30,27,100,91,82,29.77,29.63,29.55,10,5,1,22,8,28,0.18,8,Snow,104
2013-4-13,37,33,29,30,28,23,92,78,64,29.94,29.75,29.68,10,7,1,22,9,35,0.03,8,Snow,244
2013-4-14,42,34,26,28,26,22,92,69,45,30.09,30.01,29.92,10,10,5,17,8,23,T,4,Snow,219
2013-4-15,59,47,35,52,42,27,96,81,66,29.94,29.86,29.82,10,7,0,17,8,22,0.27,6,Fog-Rain,198
2013-4-16,51,42,33,43,33,26,100,71,42,30.31,30.05,29.87,10,9,3,16,8,22,0.07,4,Rain,287
2013-4-17,50,39,27,36,31,25,92,69,45,30.40,30.29,30.08,10,9,3,22,9,26,0.32,4,Rain-Thunderstorm,83
2013-4-18,56,47,38,54,46,36,100,96,92,30.06,29.61,29.43,10,3,0,16,6,23,0.98,8,Fog-Rain-Thunderstorm,119
2013-4-19,57,42,27,55,34,16,93,73,53,29.69,29.37,29.30,10,8,2,30,18,44,0.09,8,Rain-Snow,230
2013-4-20,34,28,22,20,17,12,75,61,47,30.47,30.00,29.71,10,7,1,22,11,32,0.04,7,Snow,299
2013-4-21,48,33,18,25,18,11,92,61,30,30.64,30.54,30.45,10,10,10,15,6,29,0.00,2,,151
2013-4-22,62,48,33,30,26,22,64,44,23,30.43,30.31,30.17,10,10,10,15,9,21,0.00,1,,155
2013-4-23,58,45,32,49,38,27,100,75,49,30.16,29.93,29.84,10,7,1,15,8,20,0.54,6,Rain,234
2013-4-24,44,37,30,30,26,15,92,62,31,30.06,29.92,29.85,10,10,2,18,9,25,T,6,Snow,322
2013-4-25,47,40,33,36,29,22,96,67,37,30.32,30.07,29.96,10,7,1,22,9,31,0.10,6,Snow,227
2013-4-26,60,45,30,36,30,26,92,63,33,30.40,30.32,30.24,10,10,10,18,8,25,0.00,2,,194
2013-4-27,70,57,44,43,38,34,77,52,26,30.27,30.21,30.11,10,10,10,13,6,17,0.00,1,,206
2013-4-28,71,54,37,48,42,34,93,62,30,30.10,29.96,29.86,10,10,7,17,6,24,0.00,5,,118
2013-4-29,71,58,45,53,48,45,100,72,44,29.91,29.87,29.84,10,8,0,10,4,14,0.00,5,Fog,199
2013-4-30,71,61,51,57,53,49,96,77,57,29.99,29.92,29.87,10,8,2,23,11,30,0.23,5,Rain-Thunderstorm,164